When you browse on this site, cookies collect data to enhance your experience and personalize the content and advertising you see.
Visit our Privacy Policy to learn more. By continuing to use the site, you agree to this use of cookies and data.
  • Em Portugal
  • Lista de países
  • Para 7 dias
  • Temperatura da água
  • Mapas de satélite
  • Mapa do tempo
  • Widgets de tempo
  • user-avatar
    Iniciar Sessão

    Previsão horária em Oita

    Hoje, 19 Fevereiro, Terça-feira

    Tempo Temperatura Precipitação Vento Pressão Humidade
    00:00 +10°C° 0.3 mm 2 m/s 761 mmHg 90%
    01:00 +10°C° 0.9 mm 2 m/s 761 mmHg 91%
    02:00 +10°C° 0.9 mm 2 m/s 761 mmHg 92%
    03:00 +12°C° 0 mm 2 m/s 760 mmHg 94%
    04:00 +11°C° 2.2 mm 3 m/s 760 mmHg 94%
    05:00 +11°C° 2.2 mm 3 m/s 759 mmHg 95%
    06:00 +12°C° 2.2 mm 3 m/s 758 mmHg 95%
    07:00 +12°C° 1.1 mm 4 m/s 758 mmHg 94%
    08:00 +13°C° 1.1 mm 4 m/s 757 mmHg 93%
    09:00 +13°C° 0 mm 4 m/s 756 mmHg 92%
    10:00 +14°C° 3.2 mm 4 m/s 755 mmHg 93%
    11:00 +14°C° 3.2 mm 3 m/s 755 mmHg 94%
    12:00 +14°C° 3.2 mm 3 m/s 754 mmHg 96%
    13:00 +16°C° 0.8 mm 3 m/s 754 mmHg 93%
    14:00 +17°C° 0.8 mm 3 m/s 754 mmHg 90%
    15:00 +18°C° 0 mm 3 m/s 753 mmHg 88%
    16:00 +18°C° 0 mm 3 m/s 754 mmHg 88%
    17:00 +18°C° 0 mm 2 m/s 754 mmHg 88%
    18:00 +17°C° 0 mm 2 m/s 755 mmHg 87%
    19:00 +16°C° 0 mm 2 m/s 755 mmHg 89%
    20:00 +16°C° 0 mm 2 m/s 756 mmHg 90%
    21:00 +14°C° 0 mm 3 m/s 756 mmHg 92%
    22:00 +14°C° 0 mm 3 m/s 757 mmHg 91%
    23:00 +13°C° 0 mm 3 m/s 757 mmHg 90%

    Amanhã, 20 Fevereiro, Quarta-feira

    Tempo Temperatura Precipitação Vento Pressão Humidade
    00:00 +13°C° 0 mm 3 m/s 758 mmHg 89%
    01:00 +14°C° 0 mm 2 m/s 758 mmHg 89%
    02:00 +13°C° 0 mm 2 m/s 758 mmHg 89%
    03:00 +12°C° 0 mm 2 m/s 758 mmHg 89%
    04:00 +11°C° 0 mm 3 m/s 758 mmHg 87%
    05:00 +11°C° 0 mm 3 m/s 758 mmHg 86%
    06:00 +11°C° 0 mm 3 m/s 758 mmHg 85%
    07:00 +11°C° 0 mm 3 m/s 759 mmHg 81%
    08:00 +11°C° 0 mm 4 m/s 759 mmHg 77%
    09:00 +11°C° 0 mm 4 m/s 760 mmHg 74%
    10:00 +12°C° 0 mm 5 m/s 760 mmHg 69%
    11:00 +13°C° 0 mm 5 m/s 760 mmHg 64%
    12:00 +14°C° 0 mm 5 m/s 760 mmHg 60%
    13:00 +14°C° 0 mm 5 m/s 760 mmHg 59%
    14:00 +14°C° 0 mm 5 m/s 760 mmHg 58%
    15:00 +14°C° 0 mm 5 m/s 760 mmHg 57%
    16:00 +12°C° 0 mm 5 m/s 760 mmHg 61%
    17:00 +10°C° 0 mm 5 m/s 760 mmHg 65%
    18:00 +9°C° 0 mm 5 m/s 761 mmHg 68%
    19:00 +8°C° 0 mm 4 m/s 761 mmHg 71%
    20:00 +7°C° 0 mm 4 m/s 761 mmHg 74%
    21:00 +6°C° 0 mm 4 m/s 762 mmHg 76%
    22:00 +6°C° 0 mm 4 m/s 762 mmHg 77%
    23:00 +6°C° 0 mm 4 m/s 762 mmHg 77%

    Depois de amanhã, 21 Fevereiro, Quinta-feira

    Tempo Temperatura Precipitação Vento Pressão Humidade
    00:00 +7°C° 0 mm 3 m/s 762 mmHg 77%
    01:00 +5°C° 0 mm 3 m/s 762 mmHg 77%
    02:00 +5°C° 0 mm 3 m/s 762 mmHg 77%
    03:00 +5°C° 0 mm 3 m/s 762 mmHg 77%
    04:00 +5°C° 0 mm 3 m/s 762 mmHg 76%
    05:00 +5°C° 0 mm 3 m/s 762 mmHg 76%
    06:00 +5°C° 0 mm 3 m/s 762 mmHg 75%
    07:00 +7°C° 0 mm 3 m/s 762 mmHg 72%
    08:00 +8°C° 0 mm 3 m/s 762 mmHg 68%
    09:00 +9°C° 0 mm 3 m/s 763 mmHg 65%
    10:00 +10°C° 0 mm 3 m/s 763 mmHg 61%
    11:00 +11°C° 0 mm 3 m/s 762 mmHg 57%
    12:00 +12°C° 0 mm 3 m/s 762 mmHg 53%
    13:00 +12°C° 0 mm 3 m/s 762 mmHg 53%
    14:00 +12°C° 0 mm 3 m/s 761 mmHg 52%
    15:00 +12°C° 0 mm 4 m/s 761 mmHg 52%
    16:00 +11°C° 0 mm 3 m/s 761 mmHg 56%
    17:00 +10°C° 0 mm 3 m/s 761 mmHg 61%
    18:00 +9°C° 0 mm 3 m/s 761 mmHg 65%
    19:00 +9°C° 0 mm 2 m/s 761 mmHg 67%
    20:00 +8°C° 0 mm 2 m/s 762 mmHg 69%
    21:00 +8°C° 0 mm 1 m/s 762 mmHg 72%
    22:00 +8°C° 0 mm 1 m/s 762 mmHg 72%
    23:00 +8°C° 0 mm 1 m/s 762 mmHg 73%

    22 Fevereiro, Sexta-feira

    Tempo Temperatura Precipitação Vento Pressão Humidade
    00:00 +8°C° 0 mm 1 m/s 761 mmHg 73%
    01:00 +8°C° 0 mm 1 m/s 761 mmHg 74%
    02:00 +8°C° 0 mm 1 m/s 761 mmHg 74%
    03:00 +8°C° 0 mm 1 m/s 760 mmHg 75%
    04:00 +8°C° 0 mm 1 m/s 760 mmHg 75%
    05:00 +8°C° 0 mm 1 m/s 760 mmHg 75%
    06:00 +8°C° 0 mm 1 m/s 760 mmHg 75%
    07:00 +9°C° 0 mm 1 m/s 760 mmHg 73%
    08:00 +10°C° 0 mm 1 m/s 760 mmHg 71%
    09:00 +10°C° 0 mm 1 m/s 760 mmHg 70%
    10:00 +10°C° 0.2 mm 1 m/s 759 mmHg 73%
    11:00 +11°C° 0.2 mm 1 m/s 759 mmHg 75%
    12:00 +10°C° 0.2 mm 2 m/s 758 mmHg 78%
    13:00 +10°C° 1.4 mm 2 m/s 757 mmHg 83%
    14:00 +9°C° 1.4 mm 2 m/s 756 mmHg 87%
    15:00 +9°C° 1.4 mm 2 m/s 755 mmHg 92%
    16:00 +9°C° 3 mm 2 m/s 755 mmHg 93%
    17:00 +9°C° 3 mm 2 m/s 755 mmHg 94%
    18:00 +9°C° 3 mm 2 m/s 754 mmHg 95%
    19:00 +9°C° 2.3 mm 2 m/s 754 mmHg 96%
    20:00 +9°C° 2.3 mm 2 m/s 754 mmHg 96%
    21:00 +8°C° 2.3 mm 2 m/s 754 mmHg 96%
    22:00 +8°C° 1.5 mm 2 m/s 754 mmHg 95%
    23:00 +8°C° 1.5 mm 2 m/s 754 mmHg 95%

    23 Fevereiro, Sábado

    Tempo Temperatura Precipitação Vento Pressão Humidade
    00:00 +8°C° 1.5 mm 3 m/s 754 mmHg 95%
    01:00 +8°C° 0.7 mm 3 m/s 753 mmHg 94%
    02:00 +8°C° 0.7 mm 3 m/s 753 mmHg 93%
    03:00 +8°C° 0.7 mm 3 m/s 753 mmHg 92%
    04:00 +8°C° 0.3 mm 3 m/s 753 mmHg 92%
    05:00 +8°C° 0.3 mm 3 m/s 753 mmHg 91%
    06:00 +8°C° 0.3 mm 3 m/s 753 mmHg 90%
    07:00 +9°C° 0.2 mm 3 m/s 754 mmHg 89%
    08:00 +9°C° 0.2 mm 3 m/s 754 mmHg 87%
    09:00 +9°C° 0.2 mm 3 m/s 755 mmHg 86%
    10:00 +9°C° 0.1 mm 3 m/s 755 mmHg 82%
    11:00 +10°C° 0.1 mm 3 m/s 755 mmHg 78%
    12:00 +11°C° 0.1 mm 4 m/s 755 mmHg 74%
    13:00 +11°C° 0.1 mm 4 m/s 755 mmHg 70%
    14:00 +12°C° 0.1 mm 4 m/s 755 mmHg 65%
    15:00 +12°C° 0.1 mm 4 m/s 755 mmHg 61%
    16:00 +11°C° 0 mm 4 m/s 755 mmHg 62%
    17:00 +10°C° 0 mm 4 m/s 756 mmHg 63%
    18:00 +10°C° 0 mm 4 m/s 756 mmHg 64%
    19:00 +8°C° 0 mm 4 m/s 757 mmHg 66%
    20:00 +7°C° 0 mm 4 m/s 758 mmHg 68%
    21:00 +6°C° 0 mm 4 m/s 759 mmHg 71%
    22:00 +6°C° 0 mm 4 m/s 759 mmHg 71%
    23:00 +5°C° 0 mm 3 m/s 760 mmHg 71%

    24 Fevereiro, Domingo

    Tempo Temperatura Precipitação Vento Pressão Humidade
    00:00 +5°C° 0 mm 3 m/s 760 mmHg 71%
    01:00 +5°C° 0 mm 3 m/s 760 mmHg 72%
    02:00 +4°C° 0 mm 3 m/s 760 mmHg 73%
    03:00 +4°C° 0 mm 3 m/s 761 mmHg 73%
    04:00 +4°C° 0 mm 3 m/s 761 mmHg 73%
    05:00 +4°C° 0 mm 3 m/s 761 mmHg 74%
    06:00 +4°C° 0 mm 3 m/s 761 mmHg 74%
    07:00 +4°C° 0 mm 3 m/s 762 mmHg 69%
    08:00 +5°C° 0 mm 3 m/s 762 mmHg 65%
    09:00 +7°C° 0 mm 3 m/s 762 mmHg 60%
    10:00 +8°C° 0 mm 3 m/s 762 mmHg 56%
    11:00 +9°C° 0 mm 3 m/s 762 mmHg 53%
    12:00 +10°C° 0 mm 3 m/s 761 mmHg 50%
    13:00 +11°C° 0 mm 3 m/s 761 mmHg 49%
    14:00 +11°C° 0 mm 3 m/s 761 mmHg 49%
    15:00 +12°C° 0 mm 2 m/s 760 mmHg 48%
    16:00 +10°C° 0 mm 2 m/s 760 mmHg 52%
    17:00 +10°C° 0 mm 1 m/s 760 mmHg 56%
    18:00 +8°C° 0 mm 1 m/s 760 mmHg 60%
    19:00 +8°C° 0 mm 1 m/s 761 mmHg 63%
    20:00 +7°C° 0 mm 1 m/s 761 mmHg 66%
    21:00 +7°C° 0 mm 1 m/s 761 mmHg 68%
    22:00 +6°C° 0 mm 2 m/s 761 mmHg 69%
    23:00 +6°C° 0 mm 2 m/s 761 mmHg 70%
    Mostrar mais